Weather History for Chehalis, WA

Change the Weather History Date:

Thursday, January 17, 2013

  Actual Average (KOLM) Record (KOLM)
Temperature  
Mean Temperature 32 °F 40 °F  
Max Temperature 33 °F 46 °F 58 °F (1977)
Min Temperature 30 °F 34 °F 8 °F (1950)
Degree Days  
Heating Degree Days 34 25  
Month to date heating degree days 435  
Since 1 July heating degree days 2705  
Cooling Degree Days 0 0  
Month to date cooling degree days 0  
Year to date cooling degree days 0  
Moisture  
Dew Point 32 °F    
Average Humidity 98    
Maximum Humidity 100    
Minimum Humidity 93    
Precipitation  
Precipitation 0.00 in 0.27 in 2.21 in (2005)
Month to date precipitation 4.43  
Year to date precipitation 4.43  
Sea Level Pressure  
Sea Level Pressure 30.43 in    
Wind  
Wind Speed 1 mph (SSW)    
Max Wind Speed 7 mph    
Max Gust Speed -    
Visibility 1 miles    
Events Fog    
T = Trace of Precipitation, MM = Missing Value Source: NWS Daily Summary

Daily Weather History Graph

Daily Weather History Graph

Search for Another Location

Airport:

Trip Planner

Search our weather history database for the weather conditions in past years. The results will help you decide how hot, cold, wet, or windy it might be!

Date:

Astronomy

Jan. 17, 2013 Rise Set
Actual Time 7:50 AM PST 4:54 PM PST
Civil Twilight 7:16 AM PST 5:28 PM PST
Nautical Twilight 6:39 AM PST 6:05 PM PST
Astronomical Twilight 6:03 AM PST 6:41 PM PST
Moon 10:33 AM PST (1/17) No Moon Set
Length of Visible Light 10h 11m
Length of Day
9h 03m
Waxing Crescent, 39% of the Moon is Illuminated
Jan 17
Waxing Crescent
Jan 18
First Quarter
Jan 26
Full
Feb 3
Last Quarter
Feb 9
New

Hourly Weather History & Observations

Time (PST) Temp. Windchill Dew Point Humidity Pressure Visibility Wind Dir Wind Speed Gust Speed Precip Events Conditions
12:15 AM 32.0 °F - 32.0 °F 100% 30.53 in 0.2 mi Calm Calm - N/A Fog Fog
12:35 AM 32.0 °F - 32.0 °F 100% 30.53 in 0.2 mi Calm Calm - N/A Fog Fog
12:55 AM 32.0 °F - 32.0 °F 100% 30.53 in 0.2 mi Calm Calm - N/A Fog Fog
1:15 AM 32.0 °F - 32.0 °F 100% 30.53 in 0.2 mi Calm Calm - N/A Fog Fog
1:35 AM 32.0 °F - 32.0 °F 100% 30.53 in 0.2 mi Calm Calm - N/A Fog Fog
1:55 AM 32.0 °F - 32.0 °F 100% 30.52 in 0.2 mi Calm Calm - N/A Fog Fog
2:15 AM 32.0 °F - 32.0 °F 100% 30.53 in 0.5 mi Calm Calm - N/A Fog Fog
2:35 AM 32.0 °F - 32.0 °F 100% 30.53 in 0.5 mi Calm Calm - N/A Fog Fog
2:55 AM 32.0 °F - 32.0 °F 100% 30.53 in 0.2 mi Calm Calm - N/A Fog Fog
3:15 AM 32.0 °F - 32.0 °F 100% 30.52 in 0.5 mi Calm Calm - N/A Fog Fog
3:35 AM 32.0 °F - 32.0 °F 100% 30.51 in 0.5 mi Calm Calm - N/A Fog Fog
3:55 AM 32.0 °F - 32.0 °F 100% 30.50 in 0.5 mi Calm Calm - N/A Fog Fog
4:15 AM 32.0 °F - 32.0 °F 100% 30.50 in 0.2 mi Calm Calm - N/A Fog Fog
4:35 AM 32.0 °F 28.7 °F 32.0 °F 100% 30.49 in 0.2 mi South 3.5 mph - N/A Fog Fog
4:55 AM 32.0 °F - 32.0 °F 100% 30.48 in 0.5 mi Calm Calm - N/A Fog Fog
5:15 AM 32.0 °F - 32.0 °F 100% 30.48 in 0.5 mi Calm Calm - N/A Fog Fog
5:35 AM 32.0 °F - 32.0 °F 100% 30.47 in 0.5 mi Calm Calm - N/A Fog Fog
5:55 AM 32.0 °F - 32.0 °F 100% 30.47 in 0.5 mi Calm Calm - N/A Fog Fog
6:15 AM 32.0 °F - 32.0 °F 100% 30.47 in 0.5 mi Calm Calm - N/A Fog Fog
6:35 AM 32.0 °F - 32.0 °F 100% 30.47 in 0.5 mi Calm Calm - N/A Fog Light Freezing Fog
6:55 AM 32.0 °F - 32.0 °F 100% 30.47 in 0.5 mi Calm Calm - N/A Fog Light Freezing Fog
7:15 AM 32.0 °F - 32.0 °F 100% 30.46 in 0.2 mi Calm Calm - N/A Fog Light Freezing Fog
7:35 AM 32.0 °F - 32.0 °F 100% 30.47 in 0.2 mi Calm Calm - N/A Fog Fog
7:55 AM 32.0 °F 27.5 °F 32.0 °F 100% 30.47 in 0.2 mi SE 4.6 mph - N/A Fog Light Freezing Fog
8:15 AM 32.0 °F - 32.0 °F 100% 30.47 in 0.2 mi Calm Calm - N/A Fog Light Freezing Fog
8:35 AM 32.0 °F 28.7 °F 32.0 °F 100% 30.47 in 0.2 mi South 3.5 mph - N/A Fog Light Freezing Fog
8:55 AM 32.0 °F 28.7 °F 30.2 °F 93% 30.48 in 0.2 mi South 3.5 mph - N/A Fog Light Freezing Fog
9:15 AM 30.2 °F 26.7 °F 30.2 °F 100% 30.48 in 0.2 mi South 3.5 mph - N/A Fog Light Freezing Fog
9:35 AM 32.0 °F - 30.2 °F 93% 30.48 in 0.2 mi Calm Calm - N/A Fog Light Freezing Fog
9:55 AM 32.0 °F - 30.2 °F 93% 30.49 in 0.2 mi Calm Calm - N/A Fog Light Freezing Fog
10:15 AM 32.0 °F - 30.2 °F 93% 30.48 in 0.2 mi Calm Calm - N/A Fog Light Freezing Fog
10:35 AM 32.0 °F - 32.0 °F 100% 30.48 in 0.2 mi Calm Calm - N/A Fog Light Freezing Fog
10:55 AM 32.0 °F 28.7 °F 32.0 °F 100% 30.47 in 0.2 mi SW 3.5 mph - N/A Fog Light Freezing Fog
11:15 AM 32.0 °F - 32.0 °F 100% 30.46 in 0.2 mi Calm Calm - N/A Fog Fog
11:35 AM 32.0 °F - 32.0 °F 100% 30.45 in 0.2 mi Calm Calm - N/A Fog Fog
11:55 AM 32.0 °F - 32.0 °F 100% 30.45 in 0.2 mi Calm Calm - N/A Fog Fog
12:15 PM 32.0 °F - 32.0 °F 100% 30.43 in 0.2 mi Calm Calm - N/A Fog Fog
12:35 PM 32.0 °F - 32.0 °F 100% 30.42 in 1.0 mi Calm Calm - N/A   Overcast
12:55 PM 32.0 °F - 32.0 °F 100% 30.42 in 1.8 mi Calm Calm - N/A   Overcast
1:15 PM 32.0 °F - 32.0 °F 100% 30.41 in 3.0 mi Calm Calm - N/A   Overcast
1:35 PM 32.0 °F - 32.0 °F 100% 30.40 in 4.0 mi Calm Calm - N/A   Overcast
1:55 PM 32.0 °F 27.5 °F 32.0 °F 100% 30.38 in 2.5 mi SW 4.6 mph - N/A   Overcast
2:15 PM 32.0 °F 28.7 °F 32.0 °F 100% 30.37 in 6.0 mi WSW 3.5 mph - N/A   Overcast
2:35 PM 33.8 °F - 32.0 °F 93% 30.37 in 6.0 mi Calm Calm - N/A   Overcast
2:55 PM 33.8 °F - 32.0 °F 93% 30.37 in 6.0 mi Calm Calm - N/A   Overcast
3:15 PM 33.8 °F 30.8 °F 32.0 °F 93% 30.36 in 6.0 mi SW 3.5 mph - N/A   Overcast
3:35 PM 33.8 °F - 32.0 °F 93% 30.36 in 5.0 mi Calm Calm - N/A   Overcast
4:15 PM 33.8 °F - 32.0 °F 93% 30.35 in 4.0 mi Calm Calm - N/A   Overcast
4:55 PM 33.8 °F - 32.0 °F 93% 30.35 in 2.0 mi Calm Calm - N/A   Overcast
5:35 PM 33.8 °F - 32.0 °F 93% 30.35 in 0.8 mi Calm Calm - N/A   Overcast
5:55 PM 33.8 °F - 32.0 °F 93% 30.35 in 0.5 mi Calm Calm - N/A Fog Fog
6:15 PM 33.8 °F - 32.0 °F 93% 30.35 in 0.5 mi Calm Calm - N/A Fog Fog
6:55 PM 32.0 °F - 32.0 °F 100% 30.35 in 0.2 mi Calm Calm - N/A Fog Fog
7:15 PM 32.0 °F 28.7 °F 32.0 °F 100% 30.35 in 0.5 mi NNE 3.5 mph - N/A Fog Fog
7:35 PM 32.0 °F - 32.0 °F 100% 30.35 in 1.0 mi Calm Calm - N/A   Overcast
7:55 PM 32.0 °F - 32.0 °F 100% 30.35 in 0.5 mi Calm Calm - N/A Fog Fog
9:15 PM 32.0 °F 28.7 °F 32.0 °F 100% 30.34 in 0.5 mi SSW 3.5 mph - N/A Fog Fog
9:35 PM 32.0 °F 26.4 °F 32.0 °F 100% 30.34 in 0.5 mi South 5.8 mph - N/A Fog Fog
9:55 PM 32.0 °F 27.5 °F 32.0 °F 100% 30.34 in 0.5 mi SSE 4.6 mph - N/A Fog Fog
10:15 PM 32.0 °F 27.5 °F 32.0 °F 100% 30.33 in 1.0 mi South 4.6 mph - N/A   Overcast
10:35 PM 32.0 °F 26.4 °F 32.0 °F 100% 30.33 in 0.8 mi South 5.8 mph - N/A   Overcast
10:55 PM 32.0 °F 25.6 °F 30.2 °F 93% 30.33 in 0.5 mi South 6.9 mph - N/A Fog Light Freezing Fog
11:15 PM 32.0 °F 27.5 °F 32.0 °F 100% 30.33 in 0.8 mi SSW 4.6 mph - N/A   Overcast
11:35 PM 32.0 °F 26.4 °F 32.0 °F 100% 30.33 in 0.5 mi SW 5.8 mph - N/A Fog Light Freezing Fog
11:55 PM 32.0 °F 27.5 °F 30.2 °F 93% 30.33 in 0.5 mi SSW 4.6 mph - N/A Fog Light Freezing Fog